Flag for Saudi Arabia Weather past 2 weeks in Medina, Saudi Arabia

Now
102 °F

Duststorm.


Feels Like: 97 °F
Forecast: 78 / 113 °F
Wind: 10 mph from Northwest

Location: Madinah

Current Time: Aug 22, 2014 at 1:20:34 AM

Latest Report: Aug 22, 2014 at 1:00 AM


Visibility: 2 mi

Pressure: 29.83 "Hg

Humidity: 10%

Dew point: 36 °F

Location of MedinaLocation

Historic Weather in Medina — Graph

°F

Medina temperature yesterday

Maximum temperature yesterday: 113 °F (at 3:00 PM)
Minimum temperature yesterday: 97 °F (at 3:00 AM)
Average temperature yesterday: 105 °F

Past Weeks' High & Low Weather Summary

 TemperatureHumidityPressure
High113 °F (Aug 14, 3:00 PM)24% (Aug 14, 4:00 AM)29.92 "Hg (Aug 14, 4:00 AM)
Low82 °F (Aug 7, 5:00 AM)2% (Aug 15, 3:00 PM)29.68 "Hg (Aug 16, 6:00 PM)
Average99 °F10%29.82 "Hg
* Reported Midnight between Aug 6 and Aug 7 — Midnight between Aug 21 and Aug 22, Medina, Weather by CustomWeather, © 2014

Note: Actual official high and low records may vary slightly from our data, if they occured in-between our weather recording intervals... More about our weather records

Advertising

Medina weather history for previous 24 hours

 ConditionsComfort  
Time TempWeatherWind HumidityBarometerVisibility
12:00 AM
Aug 22
102 °FClear.13 mph9%29.83 "Hg2 mi
11:00 PM
Aug 21
102 °FClear.7 mph6%29.83 "Hg10 mi
10:00 PM104 °FClear.7 mph6%29.83 "Hg10 mi
9:00 PM106 °FClear.7 mph4%29.83 "Hg10 mi
8:00 PM108 °FClear.9 mph5%29.80 "Hg10 mi
7:00 PM109 °FPassing clouds.14 mph4%29.80 "HgN/A
6:00 PM111 °FScattered clouds.14 mph3%29.77 "HgN/A
5:00 PM111 °FScattered clouds.7 mph4%29.80 "HgN/A
4:00 PM113 °FScattered clouds.21 mph4%29.80 "Hg5 mi
3:00 PM113 °FScattered clouds.16 mph4%29.80 "Hg4 mi
2:00 PM111 °FClear.14 mph5%29.83 "Hg4 mi
12:00 PM109 °FDuststorm.14 mph6%29.89 "Hg3 mi
11:00 AM108 °FSunny.12 mph8%29.89 "Hg3 mi
10:00 AM106 °FDuststorm.12 mph9%29.92 "Hg3 mi
9:00 AM104 °FDuststorm.2 mph10%29.92 "Hg3 mi
8:00 AM99 °FDuststorm.No wind13%29.92 "Hg2 mi
7:00 AM97 °FDuststorm.12 mph13%29.89 "Hg2 mi
6:00 AM97 °FLow level haze.14 mph16%29.89 "Hg2 mi
5:00 AM97 °FClear.16 mph16%29.89 "Hg4 mi
4:00 AM97 °FClear.21 mph17%29.86 "Hg5 mi
3:00 AM97 °FClear.21 mph17%29.86 "Hg5 mi
2:00 AM106 °FClear.18 mph8%29.86 "Hg4 mi
1:00 AM102 °FClear.14 mph9%29.86 "Hg4 mi
Weather by CustomWeather, © 2014

See weather overviewHow to use our weather pages